User: anonymous   Login
Location: Prague
(50.0830°N, 14.4670°E)
Time: 15:10:09
(UTC+02:00)
Language:

POLYITAN 1 - Orbit

View from above orbital plane
View from above orbital plane
View from above satellite
View from above satellite

Ground track
Ground track

The orbit data is extracted from the following two-line orbital elements,

1 40042U 14033AJ  22276.80661465  .00006297  00000-0  64030-3 0  9996
2 40042  97.9762 216.4488 0015682  55.8714 304.3989 14.91049622450303
Epoch (UTC): 03 October 2022 19:21:31
Eccentricity: 0.0015682
inclination: 97.9762°
perigee height: 584 km
apogee height: 605 km
right ascension of ascending node: 216.4488°
argument of perigee: 55.8714°
revolutions per day: 14.91049622
mean anomaly at epoch: 304.3989°
orbit number at epoch: 45030

The dashed part of the orbit path shows where the satellite is in the earth's shadow,  

DLR